Time,TemperatureF,DewpointF,PressureIn,WindDirection,WindDirectionDegrees,WindSpeedMPH,WindSpeedGustMPH,Humidity,HourlyPrecipIn,Conditions,Clouds,dailyrainin,SoftwareType,DateUTC
2013-05-07 00:01:00,54.0,49.0,29.91,NW,316,0.0,0.0,83,0.00,,,0.00,,2013-05-07 07:01:00,
2013-05-07 00:11:00,54.0,49.0,29.91,NW,316,0.0,0.0,83,0.00,,,0.00,,2013-05-07 07:11:00,
2013-05-07 00:21:00,54.0,49.0,29.91,NW,315,0.0,0.0,84,0.00,,,0.00,,2013-05-07 07:21:00,
2013-05-07 00:31:00,54.0,49.0,29.91,NW,315,0.0,0.0,84,0.00,,,0.00,,2013-05-07 07:31:00,
2013-05-07 00:42:00,54.0,49.0,29.91,NW,315,0.0,0.0,84,0.00,,,0.00,,2013-05-07 07:42:00,
2013-05-07 00:52:00,54.0,50.0,29.91,NW,316,0.0,0.0,85,0.00,,,0.00,,2013-05-07 07:52:00,
2013-05-07 01:02:00,54.0,50.0,29.91,NW,316,0.0,0.0,85,0.00,,,0.00,,2013-05-07 08:02:00,
2013-05-07 01:11:00,54.0,50.0,29.91,NW,316,0.0,0.0,85,0.00,,,0.00,,2013-05-07 08:11:00,
2013-05-07 01:21:00,54.0,50.0,29.91,NW,316,0.0,0.0,85,0.00,,,0.00,,2013-05-07 08:21:00,
2013-05-07 01:31:00,53.0,49.0,29.91,NW,316,0.0,0.0,85,0.00,,,0.00,,2013-05-07 08:31:00,
2013-05-07 01:42:00,53.0,49.0,29.91,NW,316,0.0,0.0,85,0.00,,,0.00,,2013-05-07 08:42:00,
2013-05-07 01:52:00,52.0,48.0,30.02,NW,315,0.0,0.0,86,0.00,,,0.00,,2013-05-07 08:52:00,
2013-05-07 02:01:00,52.0,48.0,29.96,NW,315,0.0,0.0,86,0.00,,,0.00,,2013-05-07 09:01:00,
2013-05-07 02:11:00,52.0,48.0,29.96,NW,315,0.0,0.0,86,0.00,,,0.00,,2013-05-07 09:11:00,
2013-05-07 02:22:00,51.0,47.0,29.96,NW,315,0.0,0.0,86,0.00,,,0.00,,2013-05-07 09:22:00,
2013-05-07 02:33:00,51.0,47.0,29.96,NW,315,0.0,0.0,86,0.00,,,0.00,,2013-05-07 09:33:00,
2013-05-07 02:42:00,51.0,47.0,29.96,NW,315,0.0,0.0,86,0.00,,,0.00,,2013-05-07 09:42:00,
2013-05-07 02:52:00,51.0,47.0,29.96,NW,315,0.0,0.0,86,0.00,,,0.00,,2013-05-07 09:52:00,
2013-05-07 03:02:00,50.0,46.0,29.97,NW,315,0.0,0.0,86,0.00,,,0.00,,2013-05-07 10:02:00,
2013-05-07 03:12:00,50.0,46.0,29.97,NW,315,0.0,0.0,86,0.00,,,0.00,,2013-05-07 10:12:00,
2013-05-07 03:22:00,49.0,45.0,29.91,NW,315,0.0,0.0,86,0.00,,,0.00,,2013-05-07 10:22:00,
2013-05-07 03:32:00,49.0,45.0,29.97,NW,315,0.0,0.0,87,0.00,,,0.00,,2013-05-07 10:32:00,
2013-05-07 03:42:00,49.0,45.0,29.97,NW,315,0.0,0.0,87,0.00,,,0.00,,2013-05-07 10:42:00,
2013-05-07 03:52:00,49.0,45.0,29.97,NW,315,0.0,0.0,87,0.00,,,0.00,,2013-05-07 10:52:00,
2013-05-07 04:02:00,50.0,47.0,29.98,NW,315,0.0,0.0,90,0.00,,,0.00,,2013-05-07 11:02:00,
2013-05-07 04:11:00,50.0,47.0,29.98,NW,315,0.0,0.0,90,0.00,,,0.00,,2013-05-07 11:11:00,
2013-05-07 04:21:00,50.0,47.0,29.98,NW,315,0.0,0.0,90,0.00,,,0.00,,2013-05-07 11:21:00,
2013-05-07 04:32:00,51.0,48.0,29.92,NW,315,0.0,0.0,90,0.00,,,0.00,,2013-05-07 11:32:00,
2013-05-07 04:42:00,51.0,48.0,29.92,NW,315,0.0,0.0,90,0.00,,,0.00,,2013-05-07 11:42:00,
2013-05-07 04:51:00,51.0,48.0,29.92,NW,315,0.0,0.0,90,0.00,,,0.00,,2013-05-07 11:51:00,
2013-05-07 05:01:00,51.0,48.0,29.92,NW,315,0.0,0.0,90,0.00,,,0.00,,2013-05-07 12:01:00,
2013-05-07 05:11:00,51.0,48.0,29.92,NW,315,0.0,0.0,90,0.00,,,0.00,,2013-05-07 12:11:00,
2013-05-07 05:21:00,52.0,49.0,29.96,NW,315,0.0,0.0,91,0.00,,,0.00,,2013-05-07 12:21:00,
2013-05-07 05:32:00,52.0,50.0,29.97,NW,315,0.0,0.0,92,0.00,,,0.00,,2013-05-07 12:32:00,
2013-05-07 05:42:00,52.0,50.0,29.97,NW,315,0.0,0.0,92,0.00,,,0.00,,2013-05-07 12:42:00,
2013-05-07 05:52:00,51.0,48.0,29.92,NW,315,0.0,0.0,91,0.00,,,0.00,,2013-05-07 12:52:00,
2013-05-07 06:01:00,50.0,47.0,29.92,NW,316,0.0,0.0,90,0.00,,,0.00,,2013-05-07 13:01:00,
2013-05-07 06:11:00,50.0,47.0,29.92,NW,316,0.0,0.0,90,0.00,,,0.00,,2013-05-07 13:11:00,
2013-05-07 06:21:00,50.0,47.0,29.92,NW,315,0.0,0.0,91,0.00,,,0.00,,2013-05-07 13:21:00,
2013-05-07 06:32:00,50.0,47.0,29.92,NW,315,0.0,0.0,90,0.00,,,0.00,,2013-05-07 13:32:00,
2013-05-07 06:42:00,50.0,47.0,29.92,NW,315,0.0,0.0,90,0.00,,,0.00,,2013-05-07 13:42:00,
2013-05-07 06:51:00,49.0,46.0,29.93,NE,55,0.0,0.0,91,0.00,,,0.00,,2013-05-07 13:51:00,
2013-05-07 07:01:00,49.0,46.0,29.93,SE,139,0.0,0.0,91,0.00,,,0.00,,2013-05-07 14:01:00,
2013-05-07 07:11:00,49.0,46.0,29.93,SE,139,0.0,0.0,91,0.00,,,0.00,,2013-05-07 14:11:00,
2013-05-07 07:21:00,50.0,47.0,29.93,SE,139,0.0,0.0,91,0.00,,,0.00,,2013-05-07 14:21:00,
2013-05-07 07:31:00,51.0,49.0,30.01,East,94,0.0,0.0,92,0.00,,,0.00,,2013-05-07 14:31:00,
2013-05-07 07:42:00,51.0,49.0,30.01,East,94,0.0,0.0,92,0.00,,,0.00,,2013-05-07 14:42:00,
2013-05-07 07:52:00,51.0,49.0,30.01,East,94,0.0,0.0,92,0.00,,,0.00,,2013-05-07 14:52:00,
2013-05-07 08:01:00,52.0,50.0,29.94,East,95,0.0,0.0,93,0.00,,,0.00,,2013-05-07 15:01:00,
2013-05-07 08:11:00,52.0,50.0,29.94,East,95,0.0,0.0,93,0.00,,,0.00,,2013-05-07 15:11:00,
2013-05-07 08:21:00,52.0,50.0,29.94,East,95,0.0,0.0,93,0.00,,,0.00,,2013-05-07 15:21:00,
2013-05-07 08:33:00,54.0,52.0,29.95,East,95,0.0,0.0,93,0.00,,,0.00,,2013-05-07 15:33:00,
2013-05-07 08:42:00,54.0,52.0,29.95,East,95,0.0,0.0,93,0.00,,,0.00,,2013-05-07 15:42:00,
2013-05-07 08:53:00,54.0,52.0,29.95,East,95,0.0,0.0,93,0.00,,,0.00,,2013-05-07 15:53:00,
2013-05-07 09:03:00,56.0,54.0,29.96,ENE,58,0.0,2.0,92,0.00,,,0.00,,2013-05-07 16:03:00,
2013-05-07 09:12:00,56.0,54.0,29.96,ENE,58,0.0,2.0,92,0.00,,,0.00,,2013-05-07 16:12:00,
2013-05-07 09:22:00,57.0,54.0,29.96,SE,131,0.0,2.0,90,0.00,,,0.00,,2013-05-07 16:22:00,
2013-05-07 09:32:00,58.0,54.0,29.96,SE,131,0.0,0.0,88,0.00,,,0.00,,2013-05-07 16:32:00,
2013-05-07 09:41:00,58.0,54.0,29.96,SE,131,0.0,0.0,88,0.00,,,0.00,,2013-05-07 16:41:00,
2013-05-07 09:51:00,58.0,54.0,29.96,SE,131,0.0,0.0,88,0.00,,,0.00,,2013-05-07 16:51:00,
2013-05-07 10:01:00,61.0,55.0,30.07,NE,55,0.0,2.0,81,0.00,,,0.00,,2013-05-07 17:01:00,
2013-05-07 10:11:00,61.0,55.0,30.07,NE,55,0.0,2.0,81,0.00,,,0.00,,2013-05-07 17:11:00,
2013-05-07 10:21:00,64.0,56.0,29.95,NE,55,0.0,2.0,76,0.00,,,0.00,,2013-05-07 17:21:00,
2013-05-07 10:31:00,64.0,56.0,29.95,NE,55,0.0,2.0,76,0.00,,,0.00,,2013-05-07 17:31:00,
2013-05-07 10:41:00,66.0,56.0,29.95,SE,125,0.0,2.0,70,0.00,,,0.00,,2013-05-07 17:41:00,
2013-05-07 10:52:00,66.0,56.0,29.95,SE,125,0.0,2.0,70,0.00,,,0.00,,2013-05-07 17:52:00,
2013-05-07 11:01:00,68.0,57.0,29.94,SSE,151,1.0,3.0,68,0.00,,,0.00,,2013-05-07 18:01:00,
2013-05-07 11:11:00,68.0,57.0,29.94,SSE,151,1.0,3.0,68,0.00,,,0.00,,2013-05-07 18:11:00,
2013-05-07 11:21:00,68.0,57.0,29.94,SSE,163,0.0,2.0,67,0.00,,,0.00,,2013-05-07 18:21:00,
2013-05-07 11:31:00,67.0,56.0,29.95,NE,37,0.0,3.0,67,0.00,,,0.00,,2013-05-07 18:31:00,
2013-05-07 11:41:00,67.0,56.0,29.95,NE,37,0.0,3.0,67,0.00,,,0.00,,2013-05-07 18:41:00,
2013-05-07 11:51:00,68.0,56.0,29.95,North,352,0.0,2.0,65,0.00,,,0.00,,2013-05-07 18:51:00,
2013-05-07 12:02:00,71.0,55.0,29.95,NW,325,0.0,3.0,58,0.00,,,0.00,,2013-05-07 19:02:00,
2013-05-07 12:11:00,71.0,55.0,29.95,NW,325,0.0,3.0,58,0.00,,,0.00,,2013-05-07 19:11:00,
2013-05-07 12:21:00,71.0,55.0,29.95,NW,325,0.0,3.0,58,0.00,,,0.00,,2013-05-07 19:21:00,
2013-05-07 12:31:00,69.0,56.0,30.01,NNW,333,0.0,5.0,63,0.00,,,0.00,,2013-05-07 19:31:00,
2013-05-07 12:41:00,69.0,56.0,30.01,NNW,333,0.0,5.0,63,0.00,,,0.00,,2013-05-07 19:41:00,
2013-05-07 12:51:00,71.0,56.0,29.98,NNW,330,1.0,5.0,60,0.00,,,0.00,,2013-05-07 19:51:00,
2013-05-07 13:01:00,70.0,55.0,29.94,NNW,344,1.0,6.0,59,0.00,,,0.00,,2013-05-07 20:01:00,
2013-05-07 13:11:00,70.0,55.0,29.94,NNW,344,1.0,6.0,59,0.00,,,0.00,,2013-05-07 20:11:00,
2013-05-07 13:21:00,70.0,55.0,29.94,NNW,344,1.0,6.0,59,0.00,,,0.00,,2013-05-07 20:21:00,
2013-05-07 13:32:00,68.0,55.0,29.94,North,1,1.0,9.0,63,0.00,,,0.00,,2013-05-07 20:32:00,
2013-05-07 13:41:00,68.0,55.0,29.94,North,1,1.0,9.0,63,0.00,,,0.00,,2013-05-07 20:41:00,
2013-05-07 13:51:00,68.0,53.0,29.94,NE,36,0.0,7.0,59,0.00,,,0.00,,2013-05-07 20:51:00,
2013-05-07 14:01:00,70.0,53.0,29.93,North,2,1.0,9.0,55,0.00,,,0.00,,2013-05-07 21:01:00,
2013-05-07 14:11:00,70.0,53.0,29.93,North,2,1.0,9.0,55,0.00,,,0.00,,2013-05-07 21:11:00,
2013-05-07 14:21:00,70.0,53.0,29.93,North,2,1.0,9.0,55,0.00,,,0.00,,2013-05-07 21:21:00,
2013-05-07 14:32:00,70.0,53.0,29.94,North,360,1.0,8.0,54,0.00,,,0.00,,2013-05-07 21:32:00,
2013-05-07 14:42:00,70.0,53.0,29.94,North,360,1.0,8.0,54,0.00,,,0.00,,2013-05-07 21:42:00,
2013-05-07 14:53:00,70.0,53.0,29.94,North,360,1.0,8.0,54,0.00,,,0.00,,2013-05-07 21:53:00,
2013-05-07 15:02:00,70.0,53.0,29.94,North,360,1.0,8.0,54,0.00,,,0.00,,2013-05-07 22:02:00,
2013-05-07 15:13:00,70.0,53.0,29.94,North,360,1.0,8.0,54,0.00,,,0.00,,2013-05-07 22:13:00,
2013-05-07 15:22:00,70.0,51.0,29.94,NNW,347,0.0,5.0,51,0.00,,,0.00,,2013-05-07 22:22:00,
2013-05-07 15:33:00,71.0,51.0,29.93,NE,41,0.0,4.0,50,0.00,,,0.00,,2013-05-07 22:33:00,
2013-05-07 15:42:00,71.0,51.0,29.93,North,8,1.0,7.0,49,0.00,,,0.00,,2013-05-07 22:42:00,
2013-05-07 15:52:00,71.0,51.0,29.93,North,8,1.0,7.0,49,0.00,,,0.00,,2013-05-07 22:52:00,
2013-05-07 16:01:00,71.0,51.0,29.93,North,8,1.0,7.0,49,0.00,,,0.00,,2013-05-07 23:01:00,
2013-05-07 16:11:00,71.0,51.0,29.93,North,8,1.0,7.0,49,0.00,,,0.00,,2013-05-07 23:11:00,
2013-05-07 16:21:00,72.0,49.0,29.92,NNE,16,2.0,6.0,45,0.00,,,0.00,,2013-05-07 23:21:00,
2013-05-07 16:32:00,73.0,50.0,29.92,NNE,24,1.0,7.0,44,0.00,,,0.00,,2013-05-07 23:32:00,
2013-05-07 16:42:00,73.0,50.0,29.98,NNE,29,0.0,7.0,44,0.00,,,0.00,,2013-05-07 23:42:00,
2013-05-07 16:52:00,73.0,50.0,29.98,NNE,29,0.0,7.0,44,0.00,,,0.00,,2013-05-07 23:52:00,
2013-05-07 17:01:00,73.0,47.0,29.92,North,353,2.0,7.0,39,0.00,,,0.00,,2013-05-08 00:01:00,
2013-05-07 17:11:00,73.0,47.0,29.92,North,353,2.0,7.0,39,0.00,,,0.00,,2013-05-08 00:11:00,
2013-05-07 17:21:00,73.0,47.0,29.92,North,353,2.0,7.0,39,0.00,,,0.00,,2013-05-08 00:21:00,
2013-05-07 17:32:00,72.0,46.0,29.92,NE,44,3.0,8.0,40,0.00,,,0.00,,2013-05-08 00:32:00,
2013-05-07 17:41:00,71.0,47.0,29.93,ENE,70,1.0,6.0,42,0.00,,,0.00,,2013-05-08 00:41:00,
2013-05-07 17:51:00,71.0,47.0,29.93,ENE,70,1.0,6.0,42,0.00,,,0.00,,2013-05-08 00:51:00,
2013-05-07 18:02:00,70.0,45.0,29.93,North,2,2.0,7.0,40,0.00,,,0.00,,2013-05-08 01:02:00,
2013-05-07 18:11:00,70.0,45.0,29.93,North,2,2.0,7.0,40,0.00,,,0.00,,2013-05-08 01:11:00,
2013-05-07 18:20:00,70.0,48.0,29.93,NE,38,1.0,5.0,45,0.00,,,0.00,,2013-05-08 01:20:00,
2013-05-07 18:21:00,71.0,49.0,29.95,NNW,331,0.0,4.0,45,0.00,,,0.00,,2013-05-08 01:21:00,
2013-05-07 18:31:00,70.0,48.0,29.93,NE,38,1.0,5.0,45,0.00,,,0.00,,2013-05-08 01:31:00,
2013-05-07 18:42:00,70.0,48.0,29.93,NE,38,1.0,5.0,45,0.00,,,0.00,,2013-05-08 01:42:00,
2013-05-07 18:52:00,70.0,48.0,29.93,NE,38,1.0,5.0,45,0.00,,,0.00,,2013-05-08 01:52:00,
2013-05-07 19:01:00,70.0,48.0,29.93,NE,38,1.0,5.0,45,0.00,,,0.00,,2013-05-08 02:01:00,
2013-05-07 19:10:00,64.0,47.0,29.93,NNE,19,1.0,8.0,55,0.00,,,0.00,,2013-05-08 02:10:00,
2013-05-07 19:11:00,70.0,48.0,29.93,NE,38,1.0,5.0,45,0.00,,,0.00,,2013-05-08 02:11:00,
2013-05-07 19:32:00,64.0,47.0,29.93,NNE,19,1.0,8.0,55,0.00,,,0.00,,2013-05-08 02:32:00,
2013-05-07 19:42:00,64.0,47.0,29.93,NNE,19,1.0,8.0,55,0.00,,,0.00,,2013-05-08 02:42:00,
2013-05-07 19:52:00,64.0,47.0,29.93,NNE,19,1.0,8.0,55,0.00,,,0.00,,2013-05-08 02:52:00,
2013-05-07 20:01:00,64.0,47.0,29.93,NNE,19,1.0,8.0,55,0.00,,,0.00,,2013-05-08 03:01:00,
2013-05-07 20:33:00,60.0,47.0,29.95,NNE,17,0.0,2.0,62,0.00,,,0.00,,2013-05-08 03:33:00,
2013-05-07 20:43:00,60.0,47.0,29.95,NNE,17,0.0,2.0,62,0.00,,,0.00,,2013-05-08 03:43:00,
2013-05-07 20:52:00,59.0,47.0,29.95,NNE,17,0.0,1.0,64,0.00,,,0.00,,2013-05-08 03:52:00,
2013-05-07 21:02:00,58.0,47.0,29.95,NNE,17,0.0,2.0,67,0.00,,,0.00,,2013-05-08 04:02:00,
2013-05-07 21:12:00,58.0,47.0,29.95,NNE,17,0.0,2.0,67,0.00,,,0.00,,2013-05-08 04:12:00,
2013-05-07 21:22:00,58.0,47.0,29.95,NNE,17,0.0,2.0,67,0.00,,,0.00,,2013-05-08 04:22:00,
2013-05-07 21:32:00,55.0,48.0,30.01,North,359,0.0,0.0,76,0.00,,,0.00,,2013-05-08 04:32:00,
2013-05-07 21:42:00,55.0,48.0,30.01,North,359,0.0,0.0,76,0.00,,,0.00,,2013-05-08 04:42:00,
2013-05-07 21:53:00,55.0,48.0,29.96,North,359,0.0,0.0,76,0.00,,,0.00,,2013-05-08 04:53:00,
2013-05-07 22:02:00,55.0,48.0,29.96,North,359,0.0,0.0,76,0.00,,,0.00,,2013-05-08 05:02:00,
2013-05-07 22:12:00,55.0,48.0,29.96,North,359,0.0,0.0,76,0.00,,,0.00,,2013-05-08 05:12:00,
2013-05-07 22:22:00,53.0,46.0,29.96,North,359,0.0,0.0,78,0.00,,,0.00,,2013-05-08 05:22:00,
2013-05-07 22:32:00,53.0,47.0,29.96,North,359,0.0,0.0,79,0.00,,,0.00,,2013-05-08 05:32:00,
2013-05-07 22:42:00,53.0,47.0,29.96,North,359,0.0,0.0,79,0.00,,,0.00,,2013-05-08 05:42:00,
2013-05-07 22:52:00,52.0,46.0,29.96,North,359,0.0,0.0,80,0.00,,,0.00,,2013-05-08 05:52:00,
2013-05-07 23:01:00,51.0,45.0,29.97,North,359,0.0,0.0,81,0.00,,,0.00,,2013-05-08 06:01:00,
2013-05-07 23:11:00,51.0,45.0,29.97,North,359,0.0,0.0,81,0.00,,,0.00,,2013-05-08 06:11:00,
2013-05-07 23:21:00,51.0,45.0,29.97,North,359,0.0,0.0,81,0.00,,,0.00,,2013-05-08 06:21:00,
2013-05-07 23:31:00,51.0,45.0,29.97,North,359,0.0,0.0,81,0.00,,,0.00,,2013-05-08 06:31:00,
2013-05-07 23:41:00,51.0,45.0,29.97,North,359,0.0,0.0,81,0.00,,,0.00,,2013-05-08 06:41:00,
2013-05-07 23:51:00,51.0,47.0,30.03,North,359,0.0,0.0,85,0.00,,,0.00,,2013-05-08 06:51:00,